TimeEST,TemperatureF,Dew PointF,Humidity,Sea Level PressureIn,VisibilityMPH,Wind Direction,Wind SpeedMPH,Gust SpeedMPH,PrecipitationIn,Events,Conditions,WindDirDegrees,DateUTC
12:15 AM,40.3,32.0,72,30.50,7.0,SSW,3.5,-,N/A,,Clear,210,2012-11-18 05:15:00
12:35 AM,40.3,32.0,72,30.49,10.0,Calm,Calm,-,N/A,,Clear,0,2012-11-18 05:35:00
12:55 AM,39.9,32.0,73,30.49,10.0,Calm,Calm,-,N/A,,Clear,0,2012-11-18 05:55:00
1:15 AM,40.3,31.8,72,30.49,10.0,SW,3.5,-,N/A,,Clear,220,2012-11-18 06:15:00
1:34 AM,40.6,32.0,71,30.49,10.0,Calm,Calm,-,N/A,,Clear,0,2012-11-18 06:34:00
1:55 AM,41.0,32.0,70,30.49,10.0,SSW,3.5,-,N/A,,Clear,200,2012-11-18 06:55:00
2:15 AM,40.1,31.8,72,30.49,10.0,Calm,Calm,-,N/A,,Clear,0,2012-11-18 07:15:00
2:35 AM,35.8,30.6,81,30.49,7.0,Calm,Calm,-,N/A,,Clear,0,2012-11-18 07:35:00
2:55 AM,33.8,30.6,88,30.49,7.0,Calm,Calm,-,N/A,,Clear,0,2012-11-18 07:55:00
3:14 AM,32.0,29.8,92,30.49,5.0,Calm,Calm,-,N/A,,Clear,0,2012-11-18 08:14:00
3:35 AM,31.8,29.5,91,30.49,5.0,Calm,Calm,-,N/A,,Clear,0,2012-11-18 08:35:00
3:55 AM,30.9,28.8,92,30.48,5.0,Calm,Calm,-,N/A,,Clear,0,2012-11-18 08:55:00
4:14 AM,30.7,28.8,92,30.48,4.0,Calm,Calm,-,N/A,,Clear,0,2012-11-18 09:14:00
4:35 AM,29.5,27.9,94,30.48,2.5,Calm,Calm,-,N/A,,Clear,0,2012-11-18 09:35:00
5:14 AM,29.7,28.2,94,30.48,4.0,Calm,Calm,-,N/A,,Clear,0,2012-11-18 10:14:00
5:35 AM,29.8,28.2,94,30.48,5.0,Calm,Calm,-,N/A,,Clear,0,2012-11-18 10:35:00
5:55 AM,30.0,28.4,94,30.48,4.0,Calm,Calm,-,N/A,,Clear,0,2012-11-18 10:55:00
6:14 AM,30.2,28.4,93,30.48,4.0,Calm,Calm,-,N/A,,Clear,0,2012-11-18 11:14:00
6:35 AM,29.8,28.0,93,30.47,5.0,Calm,Calm,-,N/A,,Clear,0,2012-11-18 11:35:00
6:55 AM,29.8,27.7,92,30.47,5.0,Calm,Calm,-,N/A,,Clear,0,2012-11-18 11:55:00
7:15 AM,29.5,27.7,93,30.47,3.0,Calm,Calm,-,N/A,,Clear,0,2012-11-18 12:15:00
7:35 AM,29.3,27.5,93,30.47,4.0,Calm,Calm,-,N/A,,Clear,0,2012-11-18 12:35:00
7:55 AM,29.3,27.5,93,30.47,2.5,Calm,Calm,-,N/A,,Clear,0,2012-11-18 12:55:00
8:15 AM,29.5,27.9,94,30.48,2.5,Calm,Calm,-,N/A,,Clear,0,2012-11-18 13:15:00
8:35 AM,30.2,28.6,94,30.48,2.5,Calm,Calm,-,N/A,,Clear,0,2012-11-18 13:35:00
8:55 AM,30.9,29.1,93,30.48,3.0,Calm,Calm,-,N/A,,Clear,0,2012-11-18 13:55:00
9:15 AM,33.8,32.0,93,30.48,4.0,Calm,Calm,-,N/A,,Clear,0,2012-11-18 14:15:00
9:35 AM,40.1,34.0,79,30.47,7.0,Calm,Calm,-,N/A,,Clear,0,2012-11-18 14:35:00
9:54 AM,44.8,31.6,60,30.48,10.0,SSW,4.6,-,N/A,,Clear,200,2012-11-18 14:54:00
10:15 AM,45.9,31.3,57,30.47,10.0,South,6.9,-,N/A,,Clear,190,2012-11-18 15:15:00
10:35 AM,47.5,31.3,53,30.47,10.0,South,5.8,-,N/A,,Clear,190,2012-11-18 15:35:00
10:55 AM,48.7,31.3,51,30.47,10.0,South,8.1,-,N/A,,Clear,170,2012-11-18 15:55:00
11:15 AM,49.5,31.3,50,30.47,10.0,SSE,6.9,-,N/A,,Clear,160,2012-11-18 16:15:00
11:35 AM,50.9,31.1,47,30.46,10.0,South,10.4,-,N/A,,Clear,170,2012-11-18 16:35:00
11:55 AM,51.3,30.9,46,30.46,10.0,South,8.1,-,N/A,,Clear,190,2012-11-18 16:55:00
12:15 PM,52.2,31.1,45,30.44,10.0,South,5.8,-,N/A,,Clear,190,2012-11-18 17:15:00
12:35 PM,52.9,31.1,43,30.43,10.0,South,6.9,-,N/A,,Clear,190,2012-11-18 17:35:00
12:55 PM,53.6,30.9,42,30.43,10.0,South,6.9,-,N/A,,Clear,190,2012-11-18 17:55:00
1:15 PM,52.3,31.3,45,30.42,10.0,SSE,6.9,-,N/A,,Clear,160,2012-11-18 18:15:00
1:35 PM,53.4,31.5,43,30.41,10.0,SSE,4.6,-,N/A,,Clear,150,2012-11-18 18:35:00
1:55 PM,55.6,30.0,38,30.41,10.0,SSE,10.4,-,N/A,,Clear,160,2012-11-18 18:55:00
2:15 PM,55.8,27.5,34,30.40,10.0,SSE,11.5,17.3,N/A,,Clear,160,2012-11-18 19:15:00
2:35 PM,55.8,28.4,35,30.40,10.0,South,8.1,-,N/A,,Clear,180,2012-11-18 19:35:00
2:55 PM,56.1,28.2,34,30.39,10.0,South,11.5,-,N/A,,Clear,170,2012-11-18 19:55:00
3:15 PM,55.6,27.5,34,30.39,10.0,SSE,11.5,17.3,N/A,,Clear,160,2012-11-18 20:15:00
3:35 PM,55.6,26.8,33,30.39,10.0,South,9.2,-,N/A,,Clear,190,2012-11-18 20:35:00
3:55 PM,55.4,27.7,35,30.38,10.0,South,5.8,-,N/A,,Clear,170,2012-11-18 20:55:00
4:15 PM,54.9,26.8,34,30.38,10.0,South,9.2,-,N/A,,Clear,170,2012-11-18 21:15:00
4:35 PM,54.5,25.9,33,30.39,10.0,SSE,12.7,-,N/A,,Clear,160,2012-11-18 21:35:00
4:55 PM,52.7,26.2,36,30.38,10.0,South,6.9,-,N/A,,Clear,170,2012-11-18 21:55:00
5:15 PM,50.0,26.6,40,30.39,10.0,SE,4.6,-,N/A,,Clear,140,2012-11-18 22:15:00
5:35 PM,49.6,28.0,43,30.39,10.0,SE,5.8,-,N/A,,Clear,130,2012-11-18 22:35:00
5:55 PM,48.6,28.0,45,30.39,10.0,SE,6.9,-,N/A,,Clear,130,2012-11-18 22:55:00
6:16 PM,47.7,28.0,47,30.40,10.0,SSE,5.8,-,N/A,,Clear,150,2012-11-18 23:16:00
6:35 PM,46.0,27.9,49,30.40,10.0,SE,4.6,-,N/A,,Clear,140,2012-11-18 23:35:00
6:55 PM,42.1,28.6,59,30.40,10.0,Calm,Calm,-,N/A,,Clear,0,2012-11-18 23:55:00
7:16 PM,41.2,28.4,60,30.40,10.0,Calm,Calm,-,N/A,,Clear,0,2012-11-19 00:16:00
7:35 PM,41.7,29.1,61,30.40,10.0,Calm,Calm,-,N/A,,Clear,0,2012-11-19 00:35:00
7:55 PM,42.4,29.3,60,30.39,10.0,Calm,Calm,-,N/A,,Clear,0,2012-11-19 00:55:00
8:15 PM,41.2,29.7,64,30.39,10.0,Calm,Calm,-,N/A,,Clear,0,2012-11-19 01:15:00
8:35 PM,41.0,30.0,65,30.39,10.0,Calm,Calm,-,N/A,,Clear,0,2012-11-19 01:35:00
8:55 PM,40.5,30.2,67,30.39,10.0,Calm,Calm,-,N/A,,Clear,0,2012-11-19 01:55:00
9:15 PM,42.4,31.3,65,30.39,10.0,SSW,3.5,-,N/A,,Clear,200,2012-11-19 02:15:00
9:35 PM,43.5,32.0,64,30.39,10.0,Calm,Calm,-,N/A,,Clear,0,2012-11-19 02:35:00
9:56 PM,41.7,32.0,68,30.38,10.0,Calm,Calm,-,N/A,,Clear,0,2012-11-19 02:56:00
10:15 PM,40.5,32.2,72,30.38,10.0,Calm,Calm,-,N/A,,Clear,0,2012-11-19 03:15:00
10:35 PM,41.0,32.7,72,30.38,10.0,Calm,Calm,-,N/A,,Clear,0,2012-11-19 03:35:00
10:55 PM,42.3,33.1,70,30.37,10.0,Calm,Calm,-,N/A,,Clear,0,2012-11-19 03:55:00
11:14 PM,43.5,34.0,69,30.37,10.0,South,3.5,-,N/A,,Clear,180,2012-11-19 04:14:00
11:35 PM,44.1,34.5,69,30.36,10.0,South,4.6,-,N/A,,Clear,190,2012-11-19 04:35:00